Showing default

INTELSAT 36, 41747

Orbit data source: Space-Track

INTELSAT 36, 41747 is a payload satellite owned by Intelsat SA (US) (US) in GEO that was launched on Wed, 24 Aug 2016 UTC via an ARIANE 5ECA launch vehicle from the French Guiana (FRGUI). Payload-class satellites include a variety of spacecraft equipped with specific instruments for various scientific and technological missions. These include communications satellites like Starlink; space stations such as the ISS; scientific satellites like the Hubble; Earth observation satellites from companies like Planet Labs, Umbra, and HawkEye 360; GPS; miniature CubeSats for education and research; and military/defense satellites.

Not visible in the next 10 days
Identifier
41747, 2016-053A
Orbit
GEO
Country
Flag of UnknownUnknown / ITSO
Related business
Manufacturer
SS/Loral (MDA)
Mission
Operational Commercial Communications
Bus & Motor
LS-1300, R-4D
Mass
3,253 kg wet, ~1,800 kg dry
Launch date (UTC)
2016-08-24 (9 years ago)
Launch vehicle
ARIANE 5ECA
Launch site
French Guiana (FRGUI)
Object type
Payload
Rocket body
Debris
Shape & HBR
Box + 2 Pan, 12.3 m
Radar Cross Section
38.748 m², Large (>1 m²)

Expand to show TLE details & history
Last TLE update: 10 hours ago

TLE from 10 hours ago
0 INTELSAT 36
1 41747U 16053A   25346.86058947 -.00000012  00000-0  00000-0 0  9999
2 41747   0.0128   7.6743 0001555 321.5559 130.8681  1.00270684 34089
Epoch: 2025-12-12T20:39Z
TLE epoch observation values (Epoch: 2025-12-12T20:39:14.930Z)
Latitude
0.02763°
Longitude
68.49679°
Altitude
35,790.677 km
Speed
3.074 km/s
True Right ascension
06h 40m 25s
True Declination
0° 01' 39"
Sunlit
Object was in daylight at epoch
Visualization orbit readout
Latitude
Unknown
Longitude
Unknown
Altitude
Unknown
Speed
Unknown
Apparent Right ascension
Unknown
Apparent Declination
Unknown
Sunlit
N/A
Visualization observer readout
Local Sidereal Time
05:23:00
Azimuth
Unknown
Elevation
Unknown
Doppler factor
Unknown
Orbital elements
Apogee altitude
35,794.531 km
Perigee altitude
35,781.417 km
Semi-major axis
42,166.111 km
Eccentricity
0.00016
Inclination
0.0128°
RAAN
7.6743°
Arg. of periapsis
321.5559°
True anomaly
130.88157°
Mean anomaly
130.8681°
Eccentric anomaly
130.87484°
Mean motion
0.25067 °/min
Orbital period
1,436.17 mins
BSTAR
0
Loading maneuver chart data...
Computing Atmospheric mass density...
Loading historical data...
Loading historical data...
Loading historical data...
Loading historical data...
Loading historical data...
Loading historical data...
Loading historical data...

Documentation

Showing up to 5 results
|